Location: Home
(42.5358°N, 72.7383°W)
Time: 14:03:07
(UTC-05:00)

Explorer 11/Cluster Stage 4 - Pass Details

Date: 19 December 2025
Orbit: 463 x 1179 km, 28.8° (Epoch: 21 January)

Event Time Altitude Azimuth Distance (km) Brightness Sun altitude
Rises 17:21:56 0° 243° (WSW) 4,009 12.4 -11.0°
Reaches altitude 10° 17:25:10 10° 233° (SW) 3,082 11.0 -11.6°
Maximum altitude 17:31:33 28° 178° (S) 2,027 8.9 -12.7°
Drops below altitude 10° 17:37:45 10° 123° (ESE) 2,992 9.2 -13.7°
Enters shadow 17:39:18 - 117° (ESE) 3,416 9.4 -14.0°
